• Currently

    Reported at Minneapolis, Minneapolis-St. Paul International Airport, MN
    4:10 AM CST TUE SEP 19 2017
  • 61°F16°C
  • Overcast
    Overcast
  • Feels Like:61°F16°CDew Point:57°F14°CHumidity:88% Winds:SE 8 mph 13 kph
    Pressure:29.91 in1013 hPaVisibility:10.00 miles16090.00 meters
Time Weather Temp Dew Point
Humidity Winds Visibility Pressure Precipitation
1 hr 24 hr
Sunday, September 17
23:53 23:53 Cloudy Cloudy 59°F15°C 52°F11°C 78% WNW 14 mphWNW 22 kph 10.0 miles16.1 km 30.03 in1017 hPa 0.00 in0.00 mm --
22:53 22:53 Cloudy Cloudy 60°F16°C 54°F12°C 80% WNW 16 mphWNW 26 kph 10.0 miles16.1 km 30 in1016 hPa 0.00 in0.00 mm --
22:38 22:38 Cloudy Cloudy 61°F16°C 55°F13°C 81% WNW 9 mphWNW 15 kph 10.0 miles16.1 km 30 in1016 hPa 0.00 in0.00 mm --
21:53 21:53 Cloudy Cloudy 61°F16°C 55°F13°C 81% NW 16 mphNW 26 kph 10.0 miles16.1 km 30 in1016 hPa 0.00 in0.00 mm --
21:40 21:40 Cloudy Cloudy 61°F16°C 56°F13°C 84% WNW 14 mphWNW 22 kph 10.0 miles16.1 km 30 in1016 hPa 0.00 in0.00 mm --
20:53 20:53 Cloudy Cloudy 63°F17°C 59°F15°C 87% W 12 mphW 19 kph 10.0 miles16.1 km 29.97 in1015 hPa 0.00 in0.00 mm --
20:18 20:18 Cloudy Cloudy 64°F18°C 60°F16°C 87% WNW 14 mphWNW 22 kph 10.0 miles16.1 km 29.97 in1015 hPa 0.00 in0.00 mm --
20:11 20:11 Cloudy Cloudy 64°F18°C 60°F16°C 87% WNW 15 mphWNW 24 kph 10.0 miles16.1 km 29.97 in1015 hPa 0.00 in0.00 mm --
19:53 19:53 Cloudy Cloudy 65°F18°C 60°F16°C 84% WNW 9 mphWNW 15 kph 10.0 miles16.1 km 29.94 in1014 hPa 0.00 in0.00 mm --
18:53 18:53 Cloudy Cloudy 69°F21°C 62°F17°C 78% WNW 12 mphWNW 19 kph 10.0 miles16.1 km 29.94 in1014 hPa 0.00 in0.00 mm --
17:53 17:53 Cloudy Cloudy 71°F22°C 63°F17°C 76% W 9 mphW 15 kph 10.0 miles16.1 km 29.91 in1013 hPa 0.00 in0.00 mm --
17:40 17:40 Cloudy Cloudy 72°F22°C 63°F17°C 73% W 12 mphW 19 kph 10.0 miles16.1 km 29.91 in1013 hPa 0.00 in0.00 mm --
16:53 16:53 Cloudy Cloudy 73°F23°C 64°F18°C 74% W 7 mphW 11 kph 10.0 miles16.1 km 29.91 in1013 hPa 0.00 in0.00 mm --
15:53 15:53 Mostly Cloudy Mostly Cloudy 74°F23°C 64°F18°C 71% NNE 3 mphNNE 6 kph 10.0 miles16.1 km 29.91 in1013 hPa 0.00 in0.00 mm --
14:53 14:53 Mostly Cloudy Mostly Cloudy 71°F22°C 63°F17°C 76% NW 6 mphNW 9 kph 10.0 miles16.1 km 29.91 in1013 hPa 0.00 in0.00 mm --
14:40 14:40 Mostly Cloudy Mostly Cloudy 71°F22°C 63°F17°C 76% W 7 mphW 11 kph 10.0 miles16.1 km 29.91 in1013 hPa 0.00 in0.00 mm --
14:09 14:09 Mostly Cloudy Mostly Cloudy 70°F21°C 63°F17°C 79% WNW 6 mphWNW 9 kph 10.0 miles16.1 km 29.91 in1013 hPa 0.00 in0.00 mm --
13:53 13:53 Mostly Cloudy Mostly Cloudy 72°F22°C 64°F18°C 76% WNW 9 mphWNW 15 kph 10.0 miles16.1 km 29.91 in1013 hPa 0.00 in0.00 mm --
13:32 13:32 Mostly Cloudy Mostly Cloudy 71°F22°C 64°F18°C 79% N 3 mphN 6 kph 10.0 miles16.1 km 29.88 in1012 hPa 0.00 in0.00 mm --
12:53 12:53 Cloudy Cloudy 70°F21°C 64°F18°C 82% NW 10 mphNW 17 kph 10.0 miles16.1 km 29.91 in1013 hPa 0.00 in0.00 mm --
12:25 12:25 Cloudy Cloudy 73°F23°C 65°F18°C 76% WNW 13 mphWNW 20 kph 10.0 miles16.1 km 29.91 in1013 hPa 0.00 in0.00 mm --
11:53 11:53 Mostly Cloudy Mostly Cloudy 74°F23°C 67°F19°C 79% W 14 mphW 22 kph 10.0 miles16.1 km 29.91 in1013 hPa 0.00 in0.00 mm --
11:51 11:51 Mostly Cloudy Mostly Cloudy 73°F23°C 66°F19°C 78% W 10 mphW 17 kph 10.0 miles16.1 km 29.91 in1013 hPa 0.00 in0.00 mm --
11:18 11:18 Cloudy Cloudy 76°F24°C 67°F19°C 74% WSW 8 mphWSW 13 kph 10.0 miles16.1 km 29.91 in1013 hPa 0.00 in0.00 mm --
10:53 10:53 Mostly Cloudy Mostly Cloudy 76°F24°C 66°F19°C 72% SW 10 mphSW 17 kph 10.0 miles16.1 km 29.88 in1012 hPa 0.00 in0.00 mm --
09:53 09:53 Mostly Cloudy Mostly Cloudy 73°F23°C 66°F19°C 79% S 13 mphS 20 kph 10.0 miles16.1 km 29.88 in1012 hPa 0.00 in0.00 mm --
08:53 08:53 Cloudy Cloudy 72°F22°C 67°F19°C 84% S 9 mphS 15 kph 10.0 miles16.1 km 29.88 in1012 hPa 0.00 in0.00 mm --
07:53 07:53 Cloudy Cloudy 71°F22°C 66°F19°C 84% S 8 mphS 13 kph 10.0 miles16.1 km 29.88 in1012 hPa 0.04 in25.81 mm --
06:53 06:53 Cloudy Cloudy 74°F23°C 66°F19°C 76% S 26 mphS 43 kph 10.0 miles16.1 km 29.88 in1012 hPa 0.00 in0.03 mm --
06:45 06:45 Cloudy Cloudy 74°F23°C 66°F19°C 76% S 23 mphS 37 kph 10.0 miles16.1 km 29.88 in1012 hPa 0.00 in0.03 mm --
05:53 05:53 Cloudy Cloudy 76°F24°C 65°F18°C 69% S 20 mphS 31 kph 10.0 miles16.1 km 29.83 in1010 hPa 0.00 in0.00 mm --
04:53 04:53 Mostly Clear Mostly Clear 77°F25°C 65°F18°C 66% S 12 mphS 19 kph 10.0 miles16.1 km 29.83 in1010 hPa 0.00 in0.00 mm --
03:53 03:53 Mostly Cloudy Mostly Cloudy 78°F26°C 65°F18°C 64% S 10 mphS 17 kph 10.0 miles16.1 km 29.8 in1009 hPa 0.00 in0.00 mm --
02:53 02:53 Mostly Cloudy Mostly Cloudy 78°F26°C 65°F18°C 64% S 9 mphS 15 kph 10.0 miles16.1 km 29.8 in1009 hPa 0.00 in0.00 mm --
01:53 01:53 Mostly Cloudy Mostly Cloudy 79°F26°C 64°F18°C 60% S 14 mphS 22 kph 10.0 miles16.1 km 29.8 in1009 hPa 0.00 in0.00 mm --
00:53 00:53 Mostly Cloudy Mostly Cloudy 79°F26°C 63°F17°C 58% S 12 mphS 19 kph 10.0 miles16.1 km 29.8 in1009 hPa 0.00 in0.00 mm --